This demonstration page uses our WeatherBlox Daily Observations layout. Learn more.

40.92945, -100.16068

Hourly Observations for December 11, 2015

Temp ( °F °C ) Dew Point ( °F °C ) Humidity (%) Winds ( mph kmh ) Pressure ( in mb ) Visibility ( mi km ) Precip ( " mm )
12:15 am 00:15 Clear 45 7 28 -2 53 53 SSE 12 19 29.53 1000 10 16.09344 0 0
12:35 am 00:35 Clear 46 8 28 -2 50 50 SSE 8 13 29.56 1001 10 16.09344 0 0
12:55 am 00:55 Clear 48 9 28 -2 46 46 SSE 8 13 29.53 1000 10 16.09344 0 0
1:15 am 01:15 Clear 46 8 28 -2 50 50 S 16 26 29.53 1000 10 16.09344 0 0
1:35 am 01:35 Clear 46 8 28 -2 50 50 E 7 11 29.53 1000 10 16.09344 0 0
1:55 am 01:55 Clear 46 8 28 -2 50 50 SSE 17 28 29.5 999 10 16.09344 0 0
2:15 am 02:15 Clear 45 7 28 -2 53 53 SE 8 13 29.53 1000 10 16.09344 0 0
2:35 am 02:35 Clear 43 6 28 -2 57 57 SE 8 13 29.5 999 10 16.09344 0 0
2:55 am 02:55 Clear 41 5 28 -2 61 61 SSE 8 13 29.5 999 10 16.09344 0 0
3:15 am 03:15 Clear 39 4 28 -2 65 65 SSE 8 13 29.53 1000 10 16.09344 0 0
3:35 am 03:35 Clear 39 4 28 -2 65 65 SSE 6 9 29.53 1000 10 16.09344 0 0
3:55 am 03:55 Clear 39 4 28 -2 65 65 SE 6 9 29.53 1000 10 16.09344 0 0
4:15 am 04:15 Clear 37 3 28 -2 70 70 SE 5 7 29.53 1000 10 16.09344 0 0
4:35 am 04:35 Clear 37 3 28 -2 70 70 SE 6 9 29.5 999 10 16.09344 0 0
4:55 am 04:55 Clear 34 1 27 -3 75 75 SE 3 6 29.53 1000 10 16.09344 0 0
5:15 am 05:15 Clear 32 0 27 -3 80 80 Calm 29.56 1001 10 16.09344 0 0
5:35 am 05:35 Clear 30 -1 27 -3 86 86 N 6 9 29.56 1001 10 16.09344 0 0
5:55 am 05:55 Clear 28 -2 25 -4 86 86 N 8 13 29.59 1002 10 16.09344 0 0
6:15 am 06:15 Clear 30 -1 27 -3 86 86 N 5 7 29.56 1001 10 16.09344 0 0
6:35 am 06:35 Clear 30 -1 27 -3 86 86 Calm 29.56 1001 10 16.09344 0 0
6:55 am 06:55 Clear 28 -2 25 -4 86 86 W 5 7 29.59 1002 10 16.09344 0 0
7:15 am 07:15 Clear 27 -3 25 -4 93 93 W 5 7 29.59 1002 10 16.09344 0 0
7:35 am 07:35 Clear 28 -2 25 -4 86 86 Calm 29.59 1002 10 16.09344 0 0
7:55 am 07:55 Sunny 28 -2 27 -3 93 93 W 5 7 29.62 1003 10 16.09344 0 0
8:15 am 08:15 Sunny 28 -2 27 -3 93 93 W 7 11 29.62 1003 10 16.09344 0 0
8:35 am 08:35 Sunny 30 -1 28 -2 93 93 W 8 13 29.62 1003 10 16.09344 0 0
8:55 am 08:55 Sunny 34 1 28 -2 81 81 WNW 8 13 29.62 1003 10 16.09344 0 0
9:15 am 09:15 Sunny 36 2 30 -1 81 81 WNW 10 17 29.62 1003 10 16.09344 0 0
9:35 am 09:35 Sunny 37 3 32 0 81 81 WNW 12 19 29.62 1003 10 16.09344 0 0
9:55 am 09:55 Sunny 39 4 32 0 75 75 WNW 10 17 29.62 1003 10 16.09344 0 0
10:15 am 10:15 Sunny 39 4 32 0 75 75 WNW 13 20 29.62 1003 10 16.09344 0 0
10:35 am 10:35 Sunny 43 6 32 0 66 66 WNW 12 19 29.59 1002 10 16.09344 0 0
10:55 am 10:55 Sunny 46 8 34 1 62 62 WNW 13 20 29.59 1002 10 16.09344 0 0
11:15 am 11:15 Sunny 50 10 34 1 54 54 WNW 9 15 29.56 1001 10 16.09344 0 0
11:35 am 11:35 Sunny 54 12 34 1 47 47 NW 13 20 29.56 1001 10 16.09344 0 0
11:55 am 11:55 Sunny 55 13 32 0 41 41 NNW 17 28 29.53 1000 10 16.09344 0 0
12:15 pm 12:15 Sunny 55 13 30 -1 38 38 NW 20 31 29.53 1000 10 16.09344 0 0
12:35 pm 12:35 Sunny 57 14 32 0 39 39 NW 21 33 29.53 1000 10 16.09344 0 0
12:55 pm 12:55 Sunny 59 15 30 -1 34 34 NW 17 28 29.53 1000 10 16.09344 0 0
1:15 pm 13:15 Sunny 57 14 30 -1 36 36 NW 16 26 29.53 1000 10 16.09344 0 0
1:35 pm 13:35 Sunny 59 15 30 -1 34 34 NW 15 24 29.53 1000 10 16.09344 0 0
1:55 pm 13:55 Sunny 59 15 30 -1 34 34 NW 14 22 29.53 1000 10 16.09344 0 0
2:15 pm 14:15 Sunny 59 15 30 -1 34 34 NW 15 24 29.53 1000 10 16.09344 0 0
2:35 pm 14:35 Sunny 59 15 30 -1 34 34 NW 15 24 29.53 1000 10 16.09344 0 0
2:55 pm 14:55 Sunny 57 14 30 -1 36 36 NNW 14 22 29.53 1000 10 16.09344 0 0
3:15 pm 15:15 Sunny 55 13 30 -1 38 38 NNW 16 26 29.56 1001 10 16.09344 0 0
3:35 pm 15:35 Sunny 54 12 30 -1 41 41 NNW 14 22 29.59 1002 10 16.09344 0 0
3:55 pm 15:55 Sunny 54 12 30 -1 41 41 NNW 13 20 29.62 1003 10 16.09344 0 0
4:15 pm 16:15 Sunny 52 11 30 -1 44 44 NNW 12 19 29.62 1003 10 16.09344 0 0
4:35 pm 16:35 Sunny 50 10 30 -1 47 47 NNW 10 17 29.65 1004 10 16.09344 0 0
4:55 pm 16:55 Sunny 48 9 30 -1 50 50 NNW 9 15 29.68 1005 10 16.09344 0 0
5:15 pm 17:15 Clear 46 8 30 -1 53 53 NNW 6 9 29.71 1006 10 16.09344 0 0
5:35 pm 17:35 Clear 43 6 30 -1 61 61 NNW 8 13 29.74 1007 10 16.09344 0 0
5:55 pm 17:55 Clear 43 6 30 -1 61 61 NNW 7 11 29.74 1007 10 16.09344 0 0
6:15 pm 18:15 Clear 41 5 30 -1 66 66 NNW 5 7 29.74 1007 10 16.09344 0 0
6:35 pm 18:35 Clear 37 3 30 -1 75 75 NNW 7 11 29.77 1008 10 16.09344 0 0
6:55 pm 18:55 Clear 37 3 30 -1 75 75 N 7 11 29.8 1009 10 16.09344 0 0
7:15 pm 19:15 Clear 39 4 30 -1 70 70 NNE 10 17 29.8 1009 10 16.09344 0 0
7:35 pm 19:35 Clear 41 5 30 -1 66 66 NNE 13 20 29.74 1007 10 16.09344 0 0
7:55 pm 19:55 Clear 39 4 30 -1 70 70 NNE 12 19 29.74 1007 10 16.09344 0 0
8:15 pm 20:15 Clear 37 3 30 -1 75 75 NNE 14 22 29.77 1008 10 16.09344 0 0
8:35 pm 20:35 Clear 37 3 30 -1 75 75 NNE 12 19 29.77 1008 10 16.09344 0 0
8:55 pm 20:55 Clear 36 2 28 -2 75 75 NNE 7 11 29.8 1009 10 16.09344 0 0
9:15 pm 21:15 Clear 34 1 28 -2 81 81 NE 7 11 29.85 1011 10 16.09344 0 0
9:35 pm 21:35 Clear 34 1 28 -2 81 81 N 12 19 29.85 1011 10 16.09344 0 0
9:55 pm 21:55 Mostly Cloudy 34 1 30 -1 87 87 NNE 8 13 29.88 1012 10 16.09344 0 0
10:15 pm 22:15 Cloudy 34 1 30 -1 87 87 NE 8 13 29.88 1012 10 16.09344 0 0
10:35 pm 22:35 Cloudy 34 1 30 -1 87 87 NNE 5 7 29.88 1012 10 16.09344 0 0
10:55 pm 22:55 Cloudy 34 1 30 -1 87 87 NNE 7 11 29.88 1012 10 16.09344 0 0
11:15 pm 23:15 Cloudy 34 1 30 -1 87 87 NNE 6 9 29.91 1013 10 16.09344 0 0
11:35 pm 23:35 Cloudy 34 1 30 -1 87 87 NE 9 15 29.91 1013 10 16.09344 0 0
11:55 pm 23:55 Cloudy 34 1 30 -1 87 87 NNE 8 13 29.91 1013 10 16.09344 0 0

Powered by AerisWeather